Home   Weather   Sisimiut   Past weeks

Flag for Greenland Past Weather in Sisimiut, Greenland — Yesterday and Last 2 Weeks

Now
36 °F

Chilly.


Feels Like: 27 °F
Forecast: 25 / 40 °F
Wind: 15 mph from Northeast

Location: Attu Kitsissut

Current Time: Sep 26, 2016 at 1:53:37 AM

Latest Report: Sep 26, 2016 at 1:00 AM


Visibility: N/A

Pressure: 29.85 "Hg

Humidity: 85%

Dew Point: 32 °F

Location of SisimiutLocation

Past Weather in Sisimiut — Graph

°F

Sisimiut Temperature Yesterday

Maximum temperature yesterday: 37 °F (at 8:00 PM)
Minimum temperature yesterday: 33 °F (at 11:00 AM)
Average temperature yesterday: 35 °F

High & Low Weather Summary for the Past Weeks

 TemperatureHumidityPressure
High43 °F (Sep 15, 4:00 PM)96% (Sep 14, 11:00 PM)30.12 "Hg (Sep 14, 11:00 PM)
Low33 °F (Sep 20, 8:00 AM)49% (Sep 22, 1:00 PM)29.35 "Hg (Sep 13, 1:00 PM)
Average37 °F81%29.74 "Hg
* Reported Sep 10 11:00 PM — Sep 25 11:00 PM, Sisimiut, Weather by CustomWeather, © 2016

Note: Actual official high and low records may vary slightly from our data, if they occured in-between our weather recording intervals... More about our weather records

Advertising

Sisimiut Weather History for the Previous 24 Hours

Scroll right to see more
 ConditionsComfort  
Time TempWeatherWind HumidityBarometerVisibility
11:00 PM
Sun, Sep 25
36 °FChilly.14 mph86%29.85 "HgN/A
10:00 PM37 °FChilly.15 mph83%29.84 "HgN/A
9:00 PM37 °FChilly.15 mph78%29.83 "HgN/A
8:00 PM37 °FChilly.13 mph78%29.83 "HgN/A
7:00 PM36 °FChilly.10 mph84%29.82 "HgN/A
6:00 PM35 °FChilly.8 mph86%29.81 "HgN/A
5:00 PM35 °FChilly.8 mph85%29.81 "HgN/A
4:00 PM36 °FChilly.1 mph79%29.81 "HgN/A
3:00 PM36 °FChilly.3 mph83%29.80 "HgN/A
2:00 PM35 °FChilly.6 mph90%29.81 "HgN/A
1:00 PM34 °FChilly.8 mph92%29.82 "HgN/A
12:00 PM34 °FChilly.5 mph94%29.83 "HgN/A
11:00 AM33 °FChilly.5 mph95%29.85 "HgN/A
10:00 AM33 °FChilly.10 mph91%29.85 "HgN/A
9:00 AM35 °FChilly.7 mph86%29.86 "HgN/A
8:00 AM35 °FChilly.5 mph85%29.88 "HgN/A
7:00 AM34 °FChilly.3 mph89%29.90 "HgN/A
6:00 AM35 °FChilly.7 mph86%29.90 "HgN/A
5:00 AM34 °FChilly.3 mph85%29.91 "HgN/A
4:00 AM35 °FChilly.5 mph83%29.92 "HgN/A
3:00 AM35 °FChilly.8 mph87%29.93 "HgN/A
2:00 AM36 °FChilly.5 mph87%29.93 "HgN/A
1:00 AM36 °FChilly.5 mph82%29.94 "HgN/A
Weather by CustomWeather, © 2016

See weather overviewHow to use our weather pages